Terug naar catalogus

PEAKSAT

ActiefWetenschapSSO
NORAD 68416·PAYLOAD·🇹🇷 Turkey

Gelanceerd Mar 30, 2026 vanaf Vandenberg Space Force Base

Loading…

Volgende Passages (komende 24 uur)

TLE

VersSource: Space-Track

Epoch: Sep 14, 2026, 14:58 UTC

1 68416U 26067A   26257.62369031  .00006060  00000-0  28073-3 0  9993
2 68416  97.4647 215.1915 0001697  22.9795 337.1516 15.20460638 25531

Volg PEAKSAT in realtime met AllMySat

Download on the App Store